Wind_Speed
43 46 47 47 47 46 45 44 44 43 43 43 45 45 44 43 43 43 42 42 40 39 40 39 39 40 40 40 40 39 39 38 38 38 39 40 41 41 41 41 41 41 42
43 44 46 45 45 46 44 43 44 44 44 44 43 43 43 43 43 42 42 42 41 40 40 40 40 40 40 39 39 39 39 38 39 38 39 39 40 41 41 40 40 41 42
41 42 42 43 44 44 44 43 44 43 43 43 43 43 43 42 41 42 42 42 41 41 41 41 40 41 40 39 39 39 39 39 39 40 39 39 40 40 40 40 40 41 42
38 40 42 41 41 42 41 41 42 42 42 42 43 42 42 42 41 41 41 40 40 40 40 40 40 40 40 39 39 39 40 40 40 39 39 39 39 39 39 39 40 40 41
35 37 39 40 40 40 39 39 40 41 41 42 42 42 41 41 41 40 41 40 40 39 38 38 38 39 39 39 39 39 40 39 39 38 38 38 38 38 39 39 40 40 41
34 35 36 37 39 38 37 37 37 38 39 40 40 40 40 40 39 39 39 40 39 38 37 37 37 38 38 38 38 39 39 38 38 39 39 38 38 39 39 39 40 40 40
33 34 35 36 36 36 36 36 36 37 37 37 37 38 40 40 39 38 38 39 38 37 35 35 36 37 37 36 37 37 37 37 37 37 37 37 37 38 38 39 40 41 40
32 32 34 35 36 36 36 36 36 37 37 36 36 36 37 38 39 39 37 36 36 36 36 36 36 37 37 36 34 34 34 35 35 35 36 37 37 37 38 39 39 39 38
30 31 32 33 33 33 34 35 35 35 35 35 34 34 35 36 38 38 37 36 36 36 36 36 36 36 35 34 34 34 34 35 35 35 35 36 36 37 38 38 37 37 36
29 30 31 31 31 31 32 32 33 33 33 33 34 34 33 34 35 35 36 36 35 35 35 35 35 34 33 33 33 34 34 34 34 34 34 34 35 36 36 36 36 35 34
28 29 29 30 30 31 31 31 31 31 32 32 33 34 33 33 34 35 34 35 35 34 34 34 34 33 33 32 32 32 32 33 32 32 32 33 34 34 34 34 33 33 33
28 28 28 29 29 30 30 30 30 30 30 31 31 32 32 33 33 34 34 34 34 34 34 34 34 34 34 33 33 33 33 32 32 31 31 31 32 32 32 31 31 31 31
28 28 28 28 29 29 29 29 29 29 30 29 29 29 30 31 32 33 34 34 34 34 34 34 34 33 33 33 33 32 31 30 30 30 30 30 31 30 29 28 28 28 28
27 27 27 28 28 29 28 28 28 28 29 29 29 29 29 30 31 32 32 33 34 34 34 34 34 33 33 33 32 31 30 30 29 29 28 28 29 29 28 27 26 26 25
26 27 27 27 28 28 28 28 28 27 28 29 29 29 30 30 31 32 32 32 32 33 33 33 33 32 31 30 29 29 29 28 28 27 27 27 27 27 26 25 24 24 23
26 26 27 27 27 27 27 28 28 28 28 28 29 29 29 29 30 30 31 31 31 32 32 32 31 30 29 29 28 28 28 28 27 26 26 26 25 24 23 23 22 22 21
27 27 27 27 27 27 27 28 28 28 28 28 27 27 27 28 27 27 28 28 28 28 28 28 29 29 28 27 27 27 27 26 26 26 25 24 23 22 21 21 21 21 20
25 26 26 26 26 26 26 27 27 27 27 27 27 26 25 25 25 25 25 25 25 25 26 26 26 26 25 25 25 25 25 25 25 25 24 23 21 21 21 21 20 20 19
23 24 24 24 25 26 26 26 27 26 27 27 27 26 25 25 25 24 24 23 23 24 24 24 24 23 23 23 24 24 23 23 22 22 21 20 20 19 19 19 18 18 18
22 22 22 23 24 24 25 26 26 26 26 26 26 26 25 24 24 24 23 23 22 22 21 22 22 22 22 22 22 22 22 22 21 20 19 19 18 18 18 17 17 17 16
21 21 22 22 23 23 23 24 25 25 26 26 26 26 25 24 23 23 22 21 21 21 21 21 22 22 22 21 22 22 21 21 20 19 19 18 18 17 17 16 16 16 15
21 21 22 22 22 23 23 24 24 25 25 26 25 25 25 24 23 21 21 21 21 21 21 21 20 21 20 21 21 20 20 20 19 19 19 18 17 16 16 16 15 14 14
20 21 21 22 22 23 23 23 24 24 24 24 24 24 23 23 22 21 21 21 21 21 20 20 20 20 20 20 19 19 19 19 18 18 17 16 15 15 15 14 14 13 12
19 19 20 21 21 22 22 22 22 23 24 23 23 23 22 22 22 21 20 20 20 20 19 19 19 19 19 19 18 18 18 17 16 16 15 14 14 13 13 13 12 12 11
18 19 19 20 20 20 21 21 20 21 22 22 23 23 22 22 21 21 20 20 20 19 19 18 18 17 17 16 16 16 16 15 15 14 13 12 11 11 11 11 10 10 10
18 18 18 19 19 19 19 19 19 19 20 21 21 21 22 22 21 21 20 20 20 19 19 18 17 16 15 15 15 14 14 14 14 13 12 10 10 10 10 10 9 9 10
Wind_Direction
243 242 241 241 242 243 244 244 245 246 249 250 249 249 250 252 254 255 257 259 260 263 265 268 272 275 276 277 278 279 281 283 286 288 290 292 293 295 297 298 299 301 302
244 243 242 241 243 243 245 246 247 248 250 250 249 250 251 253 255 257 257 259 260 263 265 269 272 273 274 275 277 279 281 283 286 288 291 293 293 295 297 298 300 301 302
244 244 243 243 243 243 246 248 249 250 251 251 250 251 253 254 256 256 257 260 261 263 266 269 270 272 272 274 277 278 281 283 286 289 292 294 294 296 297 299 301 302 303
245 245 244 244 243 244 246 248 249 250 252 252 251 252 253 253 255 256 257 259 261 263 266 268 270 271 272 273 275 279 281 283 286 290 293 295 295 297 298 299 301 302 303
246 245 245 243 243 243 245 247 248 250 251 253 253 253 252 252 254 255 256 259 262 264 265 267 269 271 272 274 276 278 282 285 288 290 293 294 295 296 298 299 300 302 302
244 244 243 242 241 242 244 246 247 248 250 252 253 252 251 251 252 253 256 258 260 262 263 265 267 270 273 275 277 279 282 285 288 290 292 293 295 297 298 299 301 302 302
244 243 241 240 240 241 243 245 246 247 249 248 249 250 251 251 252 254 256 256 258 259 262 265 269 272 274 275 278 280 283 286 289 290 291 293 295 296 298 300 301 303 303
244 242 241 241 242 243 244 246 246 247 247 248 249 250 251 251 252 253 253 255 257 259 262 265 269 272 273 275 277 280 282 285 287 289 291 293 295 297 299 301 302 303 304
245 244 244 244 244 244 245 247 247 247 247 247 247 249 251 251 251 251 252 256 258 259 261 265 268 271 272 274 276 279 281 283 286 288 289 292 294 297 299 300 301 303 305
247 245 244 243 243 244 245 247 248 248 248 247 247 249 250 250 250 251 254 258 259 260 263 265 268 270 271 273 275 277 280 282 284 286 288 291 294 297 300 301 301 303 305
248 247 245 244 243 243 243 245 248 249 249 249 249 249 250 251 251 253 256 258 259 261 263 265 268 269 271 273 275 278 280 282 285 287 288 290 293 297 299 300 301 303 305
248 248 246 245 242 241 242 245 248 250 251 251 251 250 251 251 253 254 256 258 259 260 261 264 267 269 271 274 276 278 281 282 284 287 288 290 294 297 298 299 301 303 305
248 247 247 246 244 242 243 245 247 249 250 250 250 250 252 252 254 255 257 258 258 259 261 263 267 269 271 273 275 278 280 281 284 286 288 291 295 298 299 300 301 303 305
248 248 247 246 245 244 245 246 247 249 250 251 250 250 252 254 255 256 258 259 260 260 261 263 266 269 271 272 274 276 279 280 284 286 290 294 296 298 299 300 302 303 304
247 247 247 246 246 246 246 246 246 249 251 250 250 252 254 255 256 258 260 260 260 261 262 264 266 268 268 268 271 275 278 280 283 286 290 294 296 298 298 299 301 303 304
249 249 248 247 246 246 246 246 247 249 251 251 251 253 253 255 257 258 259 260 261 263 263 263 265 266 265 266 269 273 276 279 282 284 288 291 295 296 296 298 300 303 305
248 248 248 247 247 248 247 247 247 248 249 249 250 252 254 254 255 257 258 258 259 261 263 264 265 266 265 267 270 272 274 277 280 283 286 289 291 293 295 297 300 303 304
250 248 247 245 244 245 245 245 246 247 246 247 247 250 253 254 255 257 257 259 260 261 262 263 263 263 265 267 270 271 273 276 279 281 283 286 288 289 292 295 298 301 302
251 248 247 245 244 245 245 245 246 246 245 246 246 248 251 253 256 258 259 260 261 260 260 260 259 260 262 266 269 271 273 276 278 280 282 284 285 287 289 292 295 298 300
251 249 247 246 245 246 247 246 245 245 245 246 246 247 250 253 255 257 258 258 258 258 258 258 256 257 261 265 269 271 271 273 275 277 280 283 285 286 287 289 292 295 298
252 251 249 248 247 247 247 246 245 245 244 244 246 246 248 251 253 254 255 255 256 257 257 257 257 258 261 263 266 267 268 269 271 274 276 281 285 284 286 288 289 292 296
254 252 249 248 248 248 248 247 246 245 244 243 244 245 247 248 249 251 252 253 256 258 259 259 259 260 260 263 265 264 264 266 269 273 276 279 282 283 285 287 289 291 294
255 253 250 249 249 249 249 247 244 243 243 242 243 244 244 246 248 252 253 252 255 257 258 259 260 260 259 262 262 261 261 263 267 270 274 277 279 280 282 284 287 288 289
257 254 252 251 250 249 248 246 244 242 241 241 241 241 243 245 247 250 252 252 255 256 257 260 260 259 260 259 256 257 259 262 267 270 273 274 277 277 281 283 284 285 286
260 258 254 252 250 249 247 245 243 242 241 240 239 240 242 244 244 247 250 251 253 254 256 257 256 257 257 254 253 255 256 259 263 267 268 272 274 274 278 281 282 283 282
260 258 254 249 247 245 242 241 240 240 238 237 237 239 240 242 243 246 249 250 252 253 255 253 250 251 251 251 252 254 254 255 260 260 261 266 271 271 274 277 279 280 279
Height
5624 5629 5633 5638 5642 5646 5650 5654 5657 5661 5664 5667 5670 5673 5676 5679 5682 5685 5687 5689 5691 5693 5694 5695 5695 5696 5696 5696 5696 5695 5694 5693 5692 5691 5687 5684 5681 5678 5675 5671 5667 5663 5659
5616 5620 5624 5628 5632 5636 5640 5644 5648 5651 5654 5657 5660 5664 5667 5670 5672 5675 5677 5679 5681 5683 5684 5685 5686 5686 5687 5687 5686 5686 5685 5683 5683 5682 5679 5675 5672 5668 5665 5662 5658 5654 5650
5607 5610 5614 5619 5623 5627 5631 5634 5638 5641 5645 5647 5650 5654 5657 5660 5663 5665 5668 5670 5672 5673 5674 5675 5676 5677 5677 5677 5677 5676 5675 5674 5673 5671 5669 5666 5663 5659 5656 5652 5649 5645 5640
5598 5601 5606 5610 5614 5618 5621 5625 5628 5632 5635 5638 5641 5644 5647 5650 5653 5656 5658 5660 5662 5664 5665 5666 5667 5667 5667 5667 5667 5667 5666 5665 5663 5661 5659 5657 5653 5649 5646 5643 5640 5636 5631
5589 5593 5597 5601 5605 5608 5612 5616 5619 5623 5626 5629 5632 5635 5638 5641 5643 5646 5649 5651 5653 5654 5655 5656 5657 5658 5658 5658 5658 5657 5656 5655 5654 5652 5650 5647 5644 5640 5637 5634 5631 5627 5622
5581 5585 5588 5592 5596 5600 5603 5607 5610 5613 5617 5620 5623 5626 5629 5631 5634 5636 5639 5642 5643 5645 5646 5647 5648 5649 5649 5648 5648 5647 5647 5646 5644 5643 5641 5638 5635 5631 5628 5624 5621 5618 5614
5573 5576 5580 5583 5587 5591 5595 5599 5602 5605 5608 5611 5614 5617 5620 5622 5625 5627 5630 5632 5634 5636 5637 5638 5639 5640 5640 5639 5639 5638 5637 5636 5635 5633 5631 5628 5625 5622 5619 5616 5611 5607 5603
5566 5569 5572 5576 5579 5583 5587 5590 5593 5596 5599 5602 5605 5608 5611 5613 5616 5618 5621 5623 5625 5627 5628 5630 5631 5631 5631 5631 5630 5630 5628 5627 5625 5624 5622 5619 5616 5613 5609 5606 5602 5598 5594
5559 5562 5565 5568 5572 5575 5579 5582 5585 5588 5591 5593 5596 5599 5602 5604 5607 5610 5612 5615 5616 5618 5619 5620 5621 5622 5622 5622 5622 5622 5620 5618 5616 5614 5612 5609 5606 5603 5599 5596 5593 5589 5586
5553 5555 5558 5561 5564 5567 5570 5573 5576 5579 5582 5585 5587 5590 5593 5595 5598 5601 5603 5606 5608 5609 5611 5611 5612 5613 5613 5612 5613 5612 5611 5609 5608 5606 5604 5601 5598 5594 5590 5587 5583 5580 5576
5545 5548 5550 5553 5557 5560 5563 5566 5568 5571 5574 5576 5580 5582 5585 5587 5590 5592 5594 5596 5598 5600 5601 5602 5603 5603 5604 5603 5603 5603 5602 5600 5599 5597 5595 5593 5590 5586 5583 5579 5575 5571 5568
5538 5541 5543 5546 5549 5552 5555 5558 5561 5563 5566 5568 5571 5574 5576 5578 5580 5583 5586 5588 5589 5591 5593 5594 5594 5595 5595 5594 5594 5593 5593 5591 5590 5588 5586 5584 5582 5579 5575 5571 5568 5564 5560
5531 5534 5536 5538 5541 5544 5547 5550 5553 5555 5558 5560 5563 5565 5568 5570 5572 5574 5576 5579 5580 5582 5583 5585 5585 5586 5586 5586 5585 5584 5584 5583 5581 5580 5578 5576 5573 5570 5567 5564 5561 5557 5554
5524 5526 5529 5531 5534 5536 5539 5542 5545 5547 5550 5552 5554 5557 5559 5561 5564 5565 5567 5569 5571 5573 5574 5575 5576 5576 5577 5577 5576 5576 5575 5574 5573 5572 5570 5568 5566 5563 5560 5558 5555 5552 5549
5517 5519 5522 5524 5526 5529 5531 5534 5537 5539 5541 5544 5546 5549 5551 5553 5555 5557 5558 5560 5561 5563 5565 5566 5567 5568 5568 5568 5569 5568 5568 5567 5566 5565 5563 5561 5559 5556 5554 5551 5549 5546 5544
5510 5512 5514 5516 5518 5521 5523 5526 5528 5531 5533 5536 5538 5540 5542 5544 5546 5548 5549 5551 5552 5554 5556 5557 5558 5559 5560 5560 5561 5561 5560 5559 5559 5557 5556 5554 5552 5550 5548 5546 5543 5541 5539
5502 5504 5506 5508 5511 5513 5515 5518 5521 5523 5525 5528 5530 5532 5534 5536 5538 5539 5540 5542 5543 5545 5547 5548 5549 5550 5551 5552 5552 5553 5552 5552 5551 5550 5549 5548 5546 5544 5542 5541 5538 5536 5534
5494 5496 5498 5500 5503 5505 5507 5510 5513 5515 5518 5520 5522 5525 5527 5528 5530 5532 5533 5534 5536 5537 5539 5540 5541 5542 5543 5544 5545 5545 5545 5545 5544 5543 5542 5541 5540 5539 5537 5535 5533 5531 5529
5487 5489 5491 5493 5495 5497 5500 5502 5505 5507 5510 5512 5515 5517 5519 5521 5522 5524 5525 5527 5528 5530 5531 5532 5533 5534 5535 5536 5537 5538 5538 5538 5537 5537 5536 5535 5534 5533 5532 5530 5529 5527 5525
5480 5482 5484 5486 5488 5490 5492 5494 5497 5499 5502 5504 5507 5509 5512 5514 5515 5517 5518 5520 5521 5523 5524 5525 5526 5527 5528 5529 5530 5531 5531 5531 5531 5531 5530 5530 5529 5528 5527 5525 5524 5523 5521
5473 5475 5477 5478 5480 5482 5484 5486 5489 5491 5494 5497 5499 5501 5504 5506 5508 5510 5512 5513 5515 5516 5517 5518 5519 5521 5522 5523 5524 5524 5525 5525 5525 5525 5525 5524 5524 5523 5522 5521 5519 5518 5517
5467 5468 5470 5471 5473 5475 5477 5479 5481 5484 5486 5489 5491 5494 5496 5499 5501 5503 5505 5507 5508 5510 5511 5512 5513 5514 5515 5516 5517 5518 5518 5519 5519 5519 5519 5519 5518 5518 5517 5516 5515 5514 5513
5460 5461 5463 5465 5466 5468 5470 5472 5474 5476 5479 5481 5484 5487 5490 5492 5495 5497 5499 5501 5502 5504 5505 5506 5507 5508 5509 5510 5510 5511 5512 5513 5513 5513 5513 5513 5513 5513 5512 5512 5511 5510 5510
5454 5455 5456 5458 5459 5461 5463 5464 5467 5469 5472 5475 5478 5480 5483 5486 5488 5491 5492 5494 5496 5498 5499 5500 5501 5502 5503 5504 5505 5506 5506 5507 5508 5508 5508 5508 5508 5508 5508 5508 5507 5507 5506
5448 5449 5450 5451 5453 5454 5456 5458 5460 5463 5465 5468 5471 5474 5477 5480 5482 5484 5486 5488 5490 5492 5493 5494 5495 5497 5498 5499 5500 5501 5502 5502 5503 5503 5504 5504 5504 5504 5505 5504 5504 5504 5503
5442 5443 5444 5445 5447 5449 5450 5453 5455 5457 5459 5462 5465 5468 5471 5473 5476 5478 5481 5483 5485 5486 5488 5489 5490 5492 5493 5495 5496 5497 5498 5498 5499 5499 5500 5500 5501 5501 5501 5501 5501 5501 5501